Blytheville Muni Airport, AR

7:57 AM CDT on October 21, 2017 (GMT -0500)
Blytheville Municipal

Weather History for KHKA - February, 2014

Change the Weather History Date:

Tuesday, February 11, 2014

  Actual Average Record
Temperature  
Mean Temperature 19 °F -  
Max Temperature 26 °F 49 °F 77 °F (1938)
Min Temperature 12 °F 30 °F 5 °F (1981)
Degree Days  
Heating Degree Days 46    
Moisture  
Dew Point 11 °F    
Average Humidity 68    
Maximum Humidity 74    
Minimum Humidity 60    
Precipitation  
Precipitation 0.00 in - - ()
Sea Level Pressure  
Sea Level Pressure 30.40 in    
Wind  
Wind Speed 16 mph (NNE)    
Max Wind Speed 21 mph    
Max Gust Speed 25 mph    
Visibility 10 miles    
Events      
Averages and records for this station are not official NWS values.
T = Trace of Precipitation, MM = Missing Value Source: NWS Daily Summary

Daily Weather History Graph

Daily Weather History Graph

Search for Another Location

Airport or City:

Trip Planner

Search our weather history database for the weather conditions in past years. The results will help you decide how hot, cold, wet, or windy it might be!

Date:

Astronomy

Feb. 11, 2014 Rise Set
Actual Time 6:50 AM CST 5:36 PM CST
Civil Twilight 6:24 AM CST 6:03 PM CST
Nautical Twilight 5:54 AM CST 6:33 PM CST
Astronomical Twilight 5:24 AM CST 7:03 PM CST
Moon 2:59 PM CST (2/11) 4:25 AM CST (2/11)
Length of Visible Light 11h 38m
Length of Day
10h 46m
Waxing Gibbous, 91% of the Moon is Illuminated
Feb 11
Waxing Gibbous
Feb 14
Full
Feb 22
Last Quarter
Mar 1
New
Mar 8
First Quarter

Hourly Weather History & Observations

Time (CST) Temp. Windchill Dew Point Humidity Pressure Visibility Wind Dir Wind Speed Gust Speed Precip Events Conditions
12:53 AM 16.0 °F 0.6 °F 9.0 °F 74% 30.42 in 10.0 mi NNE 16.1 mph - N/A   Clear
1:53 AM 15.1 °F -1.6 °F 8.1 °F 74% 30.44 in 10.0 mi NNE 18.4 mph - N/A   Clear
2:53 AM 12.9 °F -4.4 °F 6.1 °F 74% 30.43 in 10.0 mi NNE 18.4 mph - N/A   Clear
3:53 AM 15.1 °F -0.1 °F 7.0 °F 70% 30.42 in 10.0 mi NE 15.0 mph 23.0 mph N/A   Clear
4:53 AM 14.0 °F -3.9 °F 7.0 °F 74% 30.43 in 10.0 mi NNE 20.7 mph - N/A   Clear
5:53 AM 14.0 °F -3.4 °F 6.1 °F 71% 30.44 in 10.0 mi NNE 19.6 mph - N/A   Clear
6:53 AM 12.0 °F -5.1 °F 5.0 °F 73% 30.46 in 10.0 mi NNE 17.3 mph 25.3 mph N/A   Mostly Cloudy
7:53 AM 14.0 °F -2.0 °F 5.0 °F 67% 30.49 in 10.0 mi NNE 16.1 mph - N/A   Clear
8:53 AM 15.1 °F -1.1 °F 7.0 °F 70% 30.46 in 10.0 mi NE 17.3 mph 21.9 mph N/A   Mostly Cloudy
9:53 AM 19.0 °F 5.0 °F 9.0 °F 65% 30.48 in 10.0 mi NNE 15.0 mph 21.9 mph N/A   Scattered Clouds
10:53 AM 19.0 °F 3.6 °F 9.0 °F 65% 30.49 in 10.0 mi NNE 18.4 mph - N/A   Clear
11:53 AM 21.9 °F 8.2 °F 12.0 °F 66% 30.46 in 10.0 mi NNE 16.1 mph - N/A   Overcast
12:53 PM 25.0 °F 12.6 °F 14.0 °F 63% 30.43 in 10.0 mi NNE 15.0 mph - N/A   Mostly Cloudy
1:53 PM 25.0 °F 11.7 °F 14.0 °F 63% 30.40 in 10.0 mi NNE 17.3 mph - N/A   Partly Cloudy
2:53 PM 26.1 °F 13.1 °F 14.0 °F 60% 30.38 in 10.0 mi NNE 17.3 mph - N/A   Clear
3:53 PM 25.0 °F 12.2 °F 12.9 °F 60% 30.36 in 10.0 mi NNE 16.1 mph - N/A   Clear
4:53 PM 23.0 °F 10.6 °F 14.0 °F 68% 30.33 in 10.0 mi NNE 13.8 mph - N/A   Clear
5:53 PM 21.9 °F 11.7 °F 14.0 °F 72% 30.34 in 10.0 mi NNE 9.2 mph - N/A   Clear
6:53 PM 23.0 °F 12.4 °F 12.0 °F 63% 30.34 in 10.0 mi NE 10.4 mph - N/A   Clear
7:53 PM 23.0 °F 12.4 °F 12.9 °F 65% 30.34 in 10.0 mi NNE 10.4 mph - N/A   Clear
8:53 PM 23.0 °F 13.1 °F 12.9 °F 65% 30.35 in 10.0 mi NE 9.2 mph - N/A   Clear
9:53 PM 21.9 °F 11.0 °F 14.0 °F 72% 30.34 in 10.0 mi NE 10.4 mph - N/A   Clear
10:53 PM 21.0 °F 12.4 °F 14.0 °F 74% 30.32 in 10.0 mi NE 6.9 mph - N/A   Clear
11:53 PM 21.0 °F 9.9 °F 14.0 °F 74% 30.31 in 10.0 mi NNE 10.4 mph - N/A   Clear